Eureka, Nunavut

8:29 AM CDT on April 26, 2017 (GMT -0500)
Eureka

Weather History for CWEU - August, 2013

Change the Weather History Date:

Saturday, August 17, 2013

  Actual Average Record
Temperature  
Mean Temperature 26 °F -  
Max Temperature 29 °F 31 °F 51 °F (2010)
Min Temperature 23 °F 21 °F 23 °F (2013)
Degree Days  
Heating Degree Days 39    
Moisture  
Dew Point 18 °F    
Average Humidity 70    
Maximum Humidity 80    
Minimum Humidity 57    
Precipitation  
Precipitation 0.02 in 0.01 in - ()
Sea Level Pressure  
Sea Level Pressure 29.55 in    
Wind  
Wind Speed 6 mph ()    
Max Wind Speed 22 mph    
Max Gust Speed 28 mph    
Visibility 12.8 miles    
Events Snow    
Averages and records for this station are not official NWS values.
T = Trace of Precipitation, MM = Missing Value Source: Averaged Metar Reports

Daily Weather History Graph

Daily Weather History Graph

Search for Another Location

Airport or City:

Trip Planner

Search our weather history database for the weather conditions in past years. The results will help you decide how hot, cold, wet, or windy it might be!

Date:

Astronomy

Dec. 31, 1969 Rise Set
Actual Time Sun does not set Sun does not set
Civil Twilight Sun does not set Sun does not set
Nautical Twilight Sun does not set Sun does not set
Astronomical Twilight Sun does not set Sun does not set
Moon No Moon Rise No Moon Set
Length of Visible Light 24h 00m
Length of Day
24h 00m
Waxing Gibbous, 84% of the Moon is Illuminated
Aug 17
Waxing Gibbous
Aug 20
Full
Aug 28
Last Quarter
Sep 5
New
Sep 12
First Quarter

Hourly Weather History & Observations

Time (CDT) Temp. Windchill Dew Point Humidity Pressure Visibility Wind Dir Wind Speed Gust Speed Precip Events Conditions
1:00 AM 26 °F - 17 °F 57% 29.51 in 15 mi NNE 5.8 mph - - Snow Snow Grains
1:00 AM 24.8 °F - 17.6 °F 74% 29.51 in 15.0 mi NW 2.3 mph 17.3 mph N/A Snow Light Snow Grains
1:27 AM - - - N/A% - 15.0 mi North 11.5 mph 23.0 mph N/A   Mostly Cloudy
2:00 AM 24.8 °F 13.4 °F 15.8 °F 69% 29.52 in 15.0 mi North 12.7 mph - N/A   Mostly Cloudy
3:00 AM 24.8 °F 10.0 °F 15.8 °F 69% 29.51 in 15.0 mi North 21.9 mph 27.6 mph N/A   Mostly Cloudy
4:00 AM 24.8 °F 10.7 °F 15.8 °F 69% 29.51 in 15.0 mi North 19.6 mph - N/A   Mostly Cloudy
5:00 AM 24.8 °F 13.4 °F 15.8 °F 69% 29.52 in 15.0 mi NNE 12.7 mph - N/A   Mostly Cloudy
6:00 AM 26.6 °F 22.6 °F 15.8 °F 64% 29.52 in 15.0 mi South 3.5 mph - N/A   Mostly Cloudy
7:00 AM 24 °F - 18 °F 68%  in 15 mi Calm Calm - -   Partly Cloudy
7:00 AM 24.8 °F - 17.6 °F 74% 29.53 in 15.0 mi SW 2.3 mph - N/A   Mostly Cloudy
8:00 AM 24.8 °F 13.4 °F 17.6 °F 74% 29.54 in 15.0 mi WNW 12.7 mph - N/A   Mostly Cloudy
9:00 AM 24.8 °F 15.3 °F 15.8 °F 69% 29.54 in 15.0 mi WNW 9.2 mph - N/A   Mostly Cloudy
10:00 AM 24.8 °F 15.3 °F 17.6 °F 74% 29.54 in 15.0 mi NW 9.2 mph - N/A   Mostly Cloudy
11:00 AM 24.8 °F 17.9 °F 15.8 °F 69% 29.55 in 15.0 mi West 5.8 mph - N/A   Mostly Cloudy
12:00 PM 24.8 °F 15.3 °F 17.6 °F 74% 29.55 in 15.0 mi West 9.2 mph - N/A   Mostly Cloudy
1:00 PM 26 °F - 17 °F 58% 29.55 in 15 mi West 5.8 mph - -   Scattered Clouds
1:00 PM 26.6 °F 20.0 °F 17.6 °F 69% 29.55 in 15.0 mi West 5.8 mph - N/A   Mostly Cloudy
2:00 PM 26.6 °F 21.2 °F 17.6 °F 69% 29.55 in 15.0 mi West 4.6 mph - N/A   Mostly Cloudy
3:00 PM 26.6 °F 22.6 °F 17.6 °F 69% 29.56 in 15.0 mi West 3.5 mph - N/A   Mostly Cloudy
4:00 PM 26.6 °F - 17.6 °F 69% 29.56 in 15.0 mi NNW 2.3 mph - N/A   Scattered Clouds
5:00 PM 28.4 °F - 19.4 °F 69% 29.56 in 15.0 mi South 2.3 mph - N/A   Mostly Cloudy
6:00 PM 26.6 °F 22.6 °F 17.6 °F 69% 29.57 in 15.0 mi SSE 3.5 mph - N/A   Mostly Cloudy
7:00 PM 27 °F - 18 °F 59% 29.57 in 15 mi SSE 2.3 mph - -   Partly Cloudy
7:00 PM 26.6 °F - 17.6 °F 69% 29.57 in 15.0 mi South 2.3 mph - N/A   Mostly Cloudy
7:36 PM - - - N/A% - 10.0 mi SSW 2.3 mph - N/A   Unknown
7:54 PM - - - N/A% - 1.5 mi South 2.3 mph - N/A   Unknown
8:00 PM 26.6 °F - 19.4 °F 74% 29.58 in 1.5 mi South 2.3 mph - N/A Snow Light Snow
8:54 PM - - - N/A% - 3.0 mi Calm Calm - N/A   Unknown
9:00 PM 26.6 °F - 21.2 °F 80% 29.58 in 3.0 mi North 2.3 mph - N/A Snow Light Snow
10:00 PM 26.6 °F - 21.2 °F 80% 29.58 in 5.0 mi Calm Calm - N/A Snow Light Snow